User: anonymous   Login
Location: Unspecified
(0.0000°N, 0.0000°E)
Time: 09:46:42
(UTC+00:00)
Language:

APRIZESAT 3 - Orbit

View from above orbital plane
View from above orbital plane
View from above satellite
View from above satellite

Ground track
Ground track

The orbit data is extracted from the following two-line orbital elements,

1 35686U 09041F   17019.51499653  .00000119  00000-0  19534-4 0  9999
2 35686  98.2679  12.8761 0074243 135.9354 224.7810 14.87005469405092
Epoch (UTC): 19 January 2017 12:21:35
Eccentricity: 0.0074243
inclination: 98.2679°
perigee height: 555 km
apogee height: 659 km
right ascension of ascending node: 12.8761°
argument of perigee: 135.9354°
revolutions per day: 14.87005469
mean anomaly at epoch: 224.7810°
orbit number at epoch: 40509

The dashed part of the orbit path shows where the satellite is in the earth's shadow,  

DLR